Year,Month,Day,Hour,Minute,Value (Times are PST for temperature in C)
2019,04,16,00,01,4.50
2019,04,16,00,02,4.50
2019,04,16,00,03,4.40
2019,04,16,00,05,4.40
2019,04,16,00,06,4.40
2019,04,16,00,07,4.40
2019,04,16,00,08,4.40
2019,04,16,00,09,4.30
2019,04,16,00,10,4.30
2019,04,16,00,11,4.30
2019,04,16,00,12,4.30
2019,04,16,00,13,4.30
2019,04,16,00,16,4.20
2019,04,16,00,17,4.20
2019,04,16,00,18,4.20
2019,04,16,00,19,4.20
2019,04,16,00,20,4.20
2019,04,16,00,21,4.10
2019,04,16,00,22,4.20
2019,04,16,00,23,4.10
2019,04,16,00,24,4.10
2019,04,16,00,25,4.10
2019,04,16,00,26,4.10
2019,04,16,00,27,4.10
2019,04,16,00,28,4.00
2019,04,16,00,29,4.00
2019,04,16,00,30,3.90
2019,04,16,00,31,3.90
2019,04,16,00,32,3.90
2019,04,16,00,33,3.90
2019,04,16,00,34,3.90
2019,04,16,00,35,3.80
2019,04,16,00,36,3.80
2019,04,16,00,37,3.80
2019,04,16,00,38,3.80
2019,04,16,00,39,3.70
2019,04,16,00,40,3.70
2019,04,16,00,41,3.70
2019,04,16,00,42,3.70
2019,04,16,00,43,3.70
2019,04,16,00,44,3.70
2019,04,16,00,45,3.70
2019,04,16,00,46,3.70
2019,04,16,00,47,3.60
2019,04,16,00,48,3.60
2019,04,16,00,49,3.60
2019,04,16,00,50,3.60
2019,04,16,00,51,3.60
2019,04,16,00,52,3.60
2019,04,16,00,53,3.60
2019,04,16,00,54,3.60
2019,04,16,00,55,3.60
2019,04,16,00,56,3.60
2019,04,16,00,57,3.60
2019,04,16,00,58,3.60
2019,04,16,00,59,3.60
2019,04,16,01,00,3.60
2019,04,16,01,01,3.60
2019,04,16,01,02,3.50
2019,04,16,01,03,3.50
2019,04,16,01,04,3.50
2019,04,16,01,05,3.50
2019,04,16,01,06,3.40
2019,04,16,01,07,3.40
2019,04,16,01,08,3.40
2019,04,16,01,09,3.40
2019,04,16,01,10,3.40
2019,04,16,01,11,3.40
2019,04,16,01,12,3.30
2019,04,16,01,13,3.30
2019,04,16,01,14,3.30
2019,04,16,01,15,3.30
2019,04,16,01,16,3.30
2019,04,16,01,17,3.30
2019,04,16,01,18,3.30
2019,04,16,01,19,3.20
2019,04,16,01,20,3.20
2019,04,16,01,21,3.20
2019,04,16,01,22,3.20
2019,04,16,01,23,3.20
2019,04,16,01,24,3.20
2019,04,16,01,25,3.10
2019,04,16,01,26,3.10
2019,04,16,01,27,3.10
2019,04,16,01,28,3.10
2019,04,16,01,29,3.10
2019,04,16,01,30,3.10
2019,04,16,01,31,3.10
2019,04,16,01,32,3.10
2019,04,16,01,33,3.00
2019,04,16,01,34,3.00
2019,04,16,01,35,3.00
2019,04,16,01,36,3.00
2019,04,16,01,37,3.00
2019,04,16,01,38,3.00
2019,04,16,01,39,2.90
2019,04,16,01,40,2.90
2019,04,16,01,41,2.90
2019,04,16,01,42,2.90
2019,04,16,01,43,2.90
2019,04,16,01,44,2.90
2019,04,16,01,45,2.90
2019,04,16,01,46,2.80
2019,04,16,01,47,2.80
2019,04,16,01,48,2.80
2019,04,16,01,49,2.80
2019,04,16,01,50,2.80
2019,04,16,01,51,2.80
2019,04,16,01,52,2.80
2019,04,16,01,53,2.80
2019,04,16,01,54,2.80
2019,04,16,01,55,2.80
2019,04,16,01,56,2.80
2019,04,16,01,57,2.80
2019,04,16,01,58,2.80
2019,04,16,01,59,2.70
2019,04,16,02,00,2.70
2019,04,16,02,01,2.70
2019,04,16,02,02,2.70
2019,04,16,02,03,2.70
2019,04,16,02,04,2.70
2019,04,16,02,05,2.70
2019,04,16,02,06,2.70
2019,04,16,02,07,2.70
2019,04,16,02,08,2.60
2019,04,16,02,09,2.60
2019,04,16,02,10,2.60
2019,04,16,02,11,2.60
2019,04,16,02,12,2.60
2019,04,16,02,13,2.60
2019,04,16,02,14,2.60
2019,04,16,02,15,2.60
2019,04,16,02,16,2.60
2019,04,16,02,17,2.50
2019,04,16,02,18,2.50
2019,04,16,02,19,2.50
2019,04,16,02,20,2.50
2019,04,16,02,21,2.50
2019,04,16,02,22,2.40
2019,04,16,02,23,2.40
2019,04,16,02,24,2.40
2019,04,16,02,25,2.40
2019,04,16,02,26,2.40
2019,04,16,02,27,2.40
2019,04,16,02,28,2.40
2019,04,16,02,29,2.40
2019,04,16,02,30,2.30
2019,04,16,02,31,2.30
2019,04,16,02,32,2.30
2019,04,16,02,33,2.30
2019,04,16,02,34,2.30
2019,04,16,02,35,2.30
2019,04,16,02,36,2.30
2019,04,16,02,37,2.30
2019,04,16,02,38,2.20
2019,04,16,02,39,2.20
2019,04,16,02,40,2.20
2019,04,16,02,41,2.20
2019,04,16,02,42,2.20
2019,04,16,02,43,2.20
2019,04,16,02,44,2.20
2019,04,16,02,45,2.10
2019,04,16,02,46,2.10
2019,04,16,02,47,2.10
2019,04,16,02,48,2.10
2019,04,16,02,49,2.10
2019,04,16,02,50,2.10
2019,04,16,02,51,2.10
2019,04,16,02,52,2.10
2019,04,16,02,53,2.00
2019,04,16,02,54,2.00
2019,04,16,02,55,2.00
2019,04,16,02,56,2.00
2019,04,16,02,57,1.90
2019,04,16,02,58,1.90
2019,04,16,02,59,1.90
2019,04,16,03,00,1.90
2019,04,16,03,01,1.90
2019,04,16,03,02,1.90
2019,04,16,03,03,1.90
2019,04,16,03,04,1.80
2019,04,16,03,05,1.80
2019,04,16,03,06,1.80
2019,04,16,03,07,1.80
2019,04,16,03,08,1.80
2019,04,16,03,09,1.80
2019,04,16,03,10,1.80
2019,04,16,03,11,1.80
2019,04,16,03,12,1.80
2019,04,16,03,13,1.80
2019,04,16,03,14,1.80
2019,04,16,03,15,1.80
2019,04,16,03,16,1.80
2019,04,16,03,17,1.80
2019,04,16,03,18,1.80
2019,04,16,03,19,1.80
2019,04,16,03,20,1.80
2019,04,16,03,21,1.80
2019,04,16,03,22,1.80
2019,04,16,03,23,1.80
2019,04,16,03,24,1.80
2019,04,16,03,25,1.80
2019,04,16,03,26,1.80
2019,04,16,03,27,1.80
2019,04,16,03,28,1.80
2019,04,16,03,29,1.80
2019,04,16,03,30,1.80
2019,04,16,03,31,1.80
2019,04,16,03,32,1.80
2019,04,16,03,33,1.80
2019,04,16,03,34,1.80
2019,04,16,03,35,1.80
2019,04,16,03,36,1.80
2019,04,16,03,37,1.80
2019,04,16,03,38,1.80
2019,04,16,03,39,1.80
2019,04,16,03,40,1.80
2019,04,16,03,41,1.80
2019,04,16,03,42,1.80
2019,04,16,03,43,1.80
2019,04,16,03,44,1.80
2019,04,16,03,45,1.70
2019,04,16,03,46,1.70
2019,04,16,03,47,1.70
2019,04,16,03,48,1.70
2019,04,16,03,49,1.70
2019,04,16,03,50,1.70
2019,04,16,03,51,1.70
2019,04,16,03,52,1.70
2019,04,16,03,53,1.60
2019,04,16,03,54,1.60
2019,04,16,03,55,1.60
2019,04,16,03,56,1.60
2019,04,16,03,57,1.60
2019,04,16,03,58,1.60
2019,04,16,03,59,1.60
2019,04,16,04,00,1.50
2019,04,16,04,01,1.50
2019,04,16,04,02,1.50
2019,04,16,04,03,1.40
2019,04,16,04,04,1.40
2019,04,16,04,05,1.40
2019,04,16,04,06,1.40
2019,04,16,04,07,1.40
2019,04,16,04,08,1.40
2019,04,16,04,09,1.40
2019,04,16,04,10,1.40
2019,04,16,04,11,1.30
2019,04,16,04,12,1.30
2019,04,16,04,13,1.30
2019,04,16,04,14,1.30
2019,04,16,04,15,1.30
2019,04,16,04,16,1.30
2019,04,16,04,17,1.30
2019,04,16,04,18,1.30
2019,04,16,04,19,1.30
2019,04,16,04,20,1.20
2019,04,16,04,21,1.20
2019,04,16,04,22,1.20
2019,04,16,04,23,1.20
2019,04,16,04,24,1.20
2019,04,16,04,25,1.20
2019,04,16,04,26,1.20
2019,04,16,04,27,1.20
2019,04,16,04,28,1.20
2019,04,16,04,29,1.20
2019,04,16,04,30,1.20
2019,04,16,04,31,1.20
2019,04,16,04,32,1.20
2019,04,16,04,33,1.20
2019,04,16,04,34,1.20
2019,04,16,04,35,1.20
2019,04,16,04,36,1.20
2019,04,16,04,37,1.20
2019,04,16,04,38,1.20
2019,04,16,04,39,1.20
2019,04,16,04,40,1.20
2019,04,16,04,41,1.20
2019,04,16,04,42,1.20
2019,04,16,04,43,1.20
2019,04,16,04,44,1.20
2019,04,16,04,45,1.20
2019,04,16,04,46,1.30
2019,04,16,04,47,1.30
2019,04,16,04,48,1.30
2019,04,16,04,49,1.30
2019,04,16,04,50,1.30
2019,04,16,04,51,1.30
2019,04,16,04,52,1.30
2019,04,16,04,53,1.30
2019,04,16,04,54,1.30
2019,04,16,04,55,1.30
2019,04,16,04,56,1.30
2019,04,16,04,57,1.30
2019,04,16,04,58,1.30
2019,04,16,04,59,1.30
2019,04,16,05,00,1.30
2019,04,16,05,01,1.30
2019,04,16,05,02,1.30
2019,04,16,05,03,1.30
2019,04,16,05,04,1.30
2019,04,16,05,05,1.30
2019,04,16,05,06,1.30
2019,04,16,05,07,1.30
2019,04,16,05,08,1.30
2019,04,16,05,09,1.30
2019,04,16,05,10,1.30
2019,04,16,05,11,1.30
2019,04,16,05,12,1.30
2019,04,16,05,13,1.30
2019,04,16,05,14,1.20
2019,04,16,05,15,1.30
2019,04,16,05,16,1.20
2019,04,16,05,17,1.20
2019,04,16,05,18,1.20
2019,04,16,05,19,1.20
2019,04,16,05,20,1.20
2019,04,16,05,21,1.20
2019,04,16,05,22,1.20
2019,04,16,05,23,1.20
2019,04,16,05,24,1.20
2019,04,16,05,25,1.20
2019,04,16,05,26,1.20
2019,04,16,05,27,1.20
2019,04,16,05,28,1.20
2019,04,16,05,29,1.20
2019,04,16,05,30,1.20
2019,04,16,05,31,1.20
2019,04,16,05,32,1.20
2019,04,16,05,33,1.20
2019,04,16,05,34,1.20
2019,04,16,05,35,1.20
2019,04,16,05,36,1.20
2019,04,16,05,37,1.20
2019,04,16,05,38,1.30
2019,04,16,05,39,1.30
2019,04,16,05,40,1.30
2019,04,16,05,41,1.30
2019,04,16,05,42,1.30
2019,04,16,05,43,1.30
2019,04,16,05,44,1.30
2019,04,16,05,45,1.30
2019,04,16,05,46,1.30
2019,04,16,05,47,1.30
2019,04,16,05,48,1.30
2019,04,16,05,49,1.30
2019,04,16,05,50,1.30
2019,04,16,05,51,1.40
2019,04,16,05,52,1.40
2019,04,16,05,53,1.40
2019,04,16,05,54,1.40
2019,04,16,05,55,1.40
2019,04,16,05,56,1.40
2019,04,16,05,57,1.40
2019,04,16,05,58,1.40
2019,04,16,05,59,1.30
2019,04,16,06,00,1.40
2019,04,16,06,01,1.40
2019,04,16,06,02,1.30
2019,04,16,06,03,1.30
2019,04,16,06,04,1.30
2019,04,16,06,05,1.30
2019,04,16,06,06,1.30
2019,04,16,06,07,1.30
2019,04,16,06,08,1.30
2019,04,16,06,09,1.30
2019,04,16,06,10,1.30
2019,04,16,06,11,1.30
2019,04,16,06,12,1.20
2019,04,16,06,13,1.20
2019,04,16,06,14,1.20
2019,04,16,06,15,1.20
2019,04,16,06,16,1.20
2019,04,16,06,17,1.20
2019,04,16,06,18,1.20
2019,04,16,06,19,1.20
2019,04,16,06,20,1.20
2019,04,16,06,21,1.20
2019,04,16,06,22,1.20
2019,04,16,06,23,1.20
2019,04,16,06,24,1.20
2019,04,16,06,25,1.20
2019,04,16,06,26,1.20
2019,04,16,06,27,1.20
2019,04,16,06,28,1.20
2019,04,16,06,29,1.20
2019,04,16,06,30,1.20
2019,04,16,06,31,1.20
2019,04,16,06,32,1.20
2019,04,16,06,33,1.20
2019,04,16,06,34,1.20
2019,04,16,06,35,1.20
2019,04,16,06,36,1.20
2019,04,16,06,37,1.20
2019,04,16,06,38,1.20
2019,04,16,06,39,1.20
2019,04,16,06,40,1.20
2019,04,16,06,41,1.20
2019,04,16,06,42,1.20
2019,04,16,06,43,1.20
2019,04,16,06,44,1.20
2019,04,16,06,45,1.20
2019,04,16,06,46,1.20
2019,04,16,06,47,1.20
2019,04,16,06,48,1.20
2019,04,16,06,49,1.30
2019,04,16,06,50,1.30
2019,04,16,06,51,1.30
2019,04,16,06,52,1.30
2019,04,16,06,53,1.30
2019,04,16,06,54,1.30
2019,04,16,06,55,1.30
2019,04,16,06,56,1.30
2019,04,16,06,57,1.30
2019,04,16,06,58,1.30
2019,04,16,06,59,1.30
2019,04,16,07,00,1.40
2019,04,16,07,01,1.40
2019,04,16,07,03,1.40
2019,04,16,07,04,1.40
2019,04,16,07,05,1.40
2019,04,16,07,06,1.40
2019,04,16,07,07,1.40
2019,04,16,07,08,1.40
2019,04,16,07,09,1.50
2019,04,16,07,10,1.50
2019,04,16,07,11,1.50
2019,04,16,07,12,1.60
2019,04,16,07,14,1.60
2019,04,16,07,15,1.60
2019,04,16,07,16,1.60
2019,04,16,07,17,1.60
2019,04,16,07,19,1.70
2019,04,16,07,20,1.70
2019,04,16,07,21,1.70
2019,04,16,07,22,1.70
2019,04,16,07,23,1.70
2019,04,16,07,24,1.70
2019,04,16,07,25,1.70
2019,04,16,07,26,1.70
2019,04,16,07,27,1.70
2019,04,16,07,28,1.70
2019,04,16,07,29,1.80
2019,04,16,07,30,1.80
2019,04,16,07,31,1.80
2019,04,16,07,32,1.80
2019,04,16,07,33,1.80
2019,04,16,07,34,1.80
2019,04,16,07,35,1.80
2019,04,16,07,36,1.90
2019,04,16,07,38,1.90
2019,04,16,07,39,1.90
2019,04,16,07,40,1.90
2019,04,16,07,41,2.00
2019,04,16,07,42,2.00
2019,04,16,07,43,2.00
2019,04,16,07,44,2.00
2019,04,16,07,45,2.10
2019,04,16,07,46,2.10
2019,04,16,07,47,2.10
2019,04,16,07,48,2.10
2019,04,16,07,49,2.10
2019,04,16,07,50,2.20
2019,04,16,07,52,2.20
2019,04,16,07,53,2.20
2019,04,16,07,54,2.20
2019,04,16,07,55,2.20
2019,04,16,07,56,2.30
2019,04,16,07,57,2.30
2019,04,16,07,58,2.30
2019,04,16,07,59,2.30
2019,04,16,08,00,2.30
2019,04,16,08,01,2.30
2019,04,16,08,02,2.40
2019,04,16,08,03,2.40
2019,04,16,08,04,2.40
2019,04,16,08,05,2.40
2019,04,16,08,06,2.40
2019,04,16,08,07,2.50
2019,04,16,08,08,2.60
2019,04,16,08,09,2.60
2019,04,16,08,10,2.60
2019,04,16,08,11,2.70
2019,04,16,08,13,2.70
2019,04,16,08,14,2.80
2019,04,16,08,16,2.80
2019,04,16,08,17,2.90
2019,04,16,08,18,2.90
2019,04,16,08,19,2.90
2019,04,16,08,20,2.90
2019,04,16,08,21,3.00
2019,04,16,08,22,3.10
2019,04,16,08,23,3.10
2019,04,16,08,24,3.10
2019,04,16,08,25,3.20
2019,04,16,08,27,3.20
2019,04,16,08,28,3.20
2019,04,16,08,29,3.20
2019,04,16,08,30,3.30
2019,04,16,08,32,3.30
2019,04,16,08,33,3.30
2019,04,16,08,34,3.30
2019,04,16,08,35,3.40
2019,04,16,08,36,3.40
2019,04,16,08,38,3.40
2019,04,16,08,39,3.40
2019,04,16,08,40,3.50
2019,04,16,08,41,3.50
2019,04,16,08,42,3.50
2019,04,16,08,43,3.50
2019,04,16,08,44,3.60
2019,04,16,08,45,3.60
2019,04,16,08,47,3.60
2019,04,16,08,48,3.60
2019,04,16,08,49,3.70
2019,04,16,08,50,3.70
2019,04,16,08,52,3.70
2019,04,16,08,54,3.70
2019,04,16,08,55,3.70
2019,04,16,08,56,3.70
2019,04,16,08,57,3.70
2019,04,16,08,59,3.80
2019,04,16,09,00,3.80
2019,04,16,09,01,3.80
2019,04,16,09,02,3.80
2019,04,16,09,03,3.90
2019,04,16,09,05,3.90
2019,04,16,09,06,3.90
2019,04,16,09,07,3.90
2019,04,16,09,08,3.90
2019,04,16,09,09,3.90
2019,04,16,09,10,3.90
2019,04,16,09,11,3.90
2019,04,16,09,12,3.90
2019,04,16,09,13,4.00
2019,04,16,09,14,4.00
2019,04,16,09,15,4.00
2019,04,16,09,17,4.00
2019,04,16,09,18,4.00
2019,04,16,09,19,4.10
2019,04,16,09,20,4.10
2019,04,16,09,21,4.10
2019,04,16,09,22,4.10
2019,04,16,09,24,4.10
2019,04,16,09,25,4.20
2019,04,16,09,26,4.20
2019,04,16,09,27,4.20
2019,04,16,09,28,4.20
2019,04,16,09,29,4.20
2019,04,16,09,31,4.30
2019,04,16,09,32,4.30
2019,04,16,09,33,4.30
2019,04,16,09,35,4.40
2019,04,16,09,36,4.40
2019,04,16,09,37,4.40
2019,04,16,09,38,4.50
2019,04,16,09,39,4.50
2019,04,16,09,41,4.50
2019,04,16,09,43,4.60
2019,04,16,09,44,4.60
2019,04,16,09,45,4.60
2019,04,16,09,47,4.60
2019,04,16,09,49,4.60
2019,04,16,09,51,4.70
2019,04,16,09,52,4.70
2019,04,16,09,53,4.70
2019,04,16,09,54,4.70
2019,04,16,09,56,4.80
2019,04,16,09,57,4.80
2019,04,16,09,58,4.80
2019,04,16,09,59,4.80
2019,04,16,10,00,4.80
2019,04,16,10,02,4.90
2019,04,16,10,03,4.90
2019,04,16,10,05,4.90
2019,04,16,10,07,4.90
2019,04,16,10,09,5.00
2019,04,16,10,10,5.10
2019,04,16,10,11,5.10
2019,04,16,10,13,5.10
2019,04,16,10,14,5.20
2019,04,16,10,15,5.20
2019,04,16,10,16,5.30
2019,04,16,10,18,5.30
2019,04,16,10,19,5.30
2019,04,16,10,21,5.40
2019,04,16,10,23,5.50
2019,04,16,10,24,5.60
2019,04,16,10,25,5.60
2019,04,16,10,26,5.60
2019,04,16,10,27,5.70
2019,04,16,10,29,5.80
2019,04,16,10,30,5.80
2019,04,16,10,31,6.00
2019,04,16,10,33,6.10
2019,04,16,10,34,6.10
2019,04,16,10,35,6.20
2019,04,16,10,37,6.30
2019,04,16,10,39,6.40
2019,04,16,10,40,6.40
2019,04,16,10,42,6.50
2019,04,16,10,43,6.60
2019,04,16,10,44,6.60
2019,04,16,10,45,6.70
2019,04,16,10,47,6.70
2019,04,16,10,48,6.80
2019,04,16,10,50,6.80
2019,04,16,10,52,6.80
2019,04,16,10,53,6.80
2019,04,16,10,54,6.90
2019,04,16,10,56,6.90
2019,04,16,10,58,6.90
2019,04,16,10,59,6.90
2019,04,16,11,00,7.00
2019,04,16,11,01,7.00
2019,04,16,11,02,7.00
2019,04,16,11,04,7.00
2019,04,16,11,05,7.10
2019,04,16,11,07,7.10
2019,04,16,11,08,7.20
2019,04,16,11,10,7.20
2019,04,16,11,12,7.30
2019,04,16,11,13,7.40
2019,04,16,11,15,7.50
2019,04,16,11,17,7.60
2019,04,16,11,18,7.70
2019,04,16,11,19,7.70
2019,04,16,11,21,7.80
2019,04,16,11,23,7.80
2019,04,16,11,24,7.90
2019,04,16,11,26,7.90
2019,04,16,11,28,8.10
2019,04,16,11,29,8.20
2019,04,16,11,31,8.20
2019,04,16,11,32,8.20
2019,04,16,11,33,8.30
2019,04,16,11,35,8.30
2019,04,16,11,36,8.30
2019,04,16,11,37,8.40
2019,04,16,11,38,8.40
2019,04,16,11,39,8.40
2019,04,16,11,41,8.40
2019,04,16,11,43,8.40
2019,04,16,11,44,8.40
2019,04,16,11,45,8.40
2019,04,16,11,46,8.40
2019,04,16,11,47,8.40
2019,04,16,11,48,8.40
2019,04,16,11,49,8.40
2019,04,16,11,51,8.40
2019,04,16,11,52,8.40
2019,04,16,11,55,8.50
2019,04,16,11,56,8.40
2019,04,16,11,57,8.40
2019,04,16,11,58,8.40
2019,04,16,12,00,8.40
2019,04,16,12,01,8.40
2019,04,16,12,03,8.40
2019,04,16,12,05,8.50
2019,04,16,12,07,8.50
2019,04,16,12,08,8.50
2019,04,16,12,09,8.50
2019,04,16,12,10,8.60
2019,04,16,12,11,8.50
2019,04,16,12,12,8.50
2019,04,16,12,13,8.50
2019,04,16,12,15,8.40
2019,04,16,12,17,8.40
2019,04,16,12,18,8.40
2019,04,16,12,19,8.40
2019,04,16,12,21,8.40
2019,04,16,12,22,8.40
2019,04,16,12,24,8.40
2019,04,16,12,26,8.40
2019,04,16,12,27,8.40
2019,04,16,12,28,8.40
2019,04,16,12,29,8.40
2019,04,16,12,31,8.40
2019,04,16,12,32,8.40
2019,04,16,12,34,8.40
2019,04,16,12,35,8.40
2019,04,16,12,36,8.40
2019,04,16,12,38,8.40
2019,04,16,12,39,8.40
2019,04,16,12,40,8.40
2019,04,16,12,42,8.40
2019,04,16,12,43,8.40
2019,04,16,12,45,8.40
2019,04,16,12,46,8.40
2019,04,16,12,48,8.40
2019,04,16,12,50,8.40
2019,04,16,12,51,8.40
2019,04,16,12,52,8.40
2019,04,16,12,54,8.40
2019,04,16,12,56,8.40
2019,04,16,12,58,8.50
2019,04,16,12,59,8.60
2019,04,16,13,01,8.60
2019,04,16,13,02,8.60
2019,04,16,13,04,8.60
2019,04,16,13,05,8.60
2019,04,16,13,06,8.70
2019,04,16,13,07,8.70
2019,04,16,13,09,8.70
2019,04,16,13,10,8.70
2019,04,16,13,11,8.70
2019,04,16,13,13,8.80
2019,04,16,13,14,8.80
2019,04,16,13,16,8.80
2019,04,16,13,17,8.90
2019,04,16,13,18,8.90
2019,04,16,13,20,8.90
2019,04,16,13,22,8.90
2019,04,16,13,23,8.90
2019,04,16,13,24,8.90
2019,04,16,13,26,8.90
2019,04,16,13,27,8.90
2019,04,16,13,29,8.90
2019,04,16,13,30,8.90
2019,04,16,13,32,8.90
2019,04,16,13,33,8.90
2019,04,16,13,34,8.90
2019,04,16,13,35,8.90
2019,04,16,13,37,8.80
2019,04,16,13,38,8.80
2019,04,16,13,40,8.80
2019,04,16,13,42,8.90
2019,04,16,13,43,8.90
2019,04,16,13,44,9.00
2019,04,16,13,45,9.00
2019,04,16,13,46,9.10
2019,04,16,13,48,9.10
2019,04,16,13,49,9.20
2019,04,16,13,50,9.20
2019,04,16,13,51,9.20
2019,04,16,13,53,9.30
2019,04,16,13,54,9.30
2019,04,16,13,56,9.30
2019,04,16,13,57,9.30
2019,04,16,13,59,9.30
2019,04,16,14,00,9.30
2019,04,16,14,01,9.30
2019,04,16,14,02,9.40
2019,04,16,14,04,9.40
2019,04,16,14,05,9.40
2019,04,16,14,06,9.50
2019,04,16,14,07,9.50
2019,04,16,14,08,9.50
2019,04,16,14,09,9.60
2019,04,16,14,10,9.60
2019,04,16,14,12,9.60
2019,04,16,14,13,9.70
2019,04,16,14,15,9.70
2019,04,16,14,17,9.70
2019,04,16,14,18,9.80
2019,04,16,14,20,9.80
2019,04,16,14,22,9.90
2019,04,16,14,23,9.90
2019,04,16,14,25,10.00
2019,04,16,14,26,10.00
2019,04,16,14,27,10.00
2019,04,16,14,29,10.00
2019,04,16,14,30,10.10
2019,04,16,14,31,10.10
2019,04,16,14,32,10.10
2019,04,16,14,34,10.10
2019,04,16,14,35,10.20
2019,04,16,14,37,10.20
2019,04,16,14,38,10.20
2019,04,16,14,39,10.20
2019,04,16,14,41,10.30
2019,04,16,14,42,10.20
2019,04,16,14,43,10.20
2019,04,16,14,44,10.30
2019,04,16,14,45,10.20
2019,04,16,14,46,10.20
2019,04,16,14,47,10.20
2019,04,16,14,48,10.30
2019,04,16,14,49,10.30
2019,04,16,14,50,10.30
2019,04,16,14,51,10.30
2019,04,16,14,52,10.30
2019,04,16,14,53,10.30
2019,04,16,14,54,10.30
2019,04,16,14,56,10.30
2019,04,16,14,57,10.30
2019,04,16,14,58,10.30
2019,04,16,14,59,10.30
2019,04,16,15,01,10.30
2019,04,16,15,02,10.20
2019,04,16,15,03,10.20
2019,04,16,15,04,10.20
2019,04,16,15,05,10.20
2019,04,16,15,06,10.20
2019,04,16,15,07,10.20
2019,04,16,15,09,10.20
2019,04,16,15,11,10.20
2019,04,16,15,12,10.20
2019,04,16,15,13,10.20
2019,04,16,15,15,10.20
2019,04,16,15,17,10.30
2019,04,16,15,18,10.30
2019,04,16,15,19,10.30
2019,04,16,15,20,10.20
2019,04,16,15,21,10.20
2019,04,16,15,22,10.20
2019,04,16,15,23,10.20
2019,04,16,15,24,10.20
2019,04,16,15,25,10.20
2019,04,16,15,26,10.20
2019,04,16,15,27,10.30
2019,04,16,15,28,10.30
2019,04,16,15,29,10.20
2019,04,16,15,30,10.20
2019,04,16,15,31,10.20
2019,04,16,15,32,10.20
2019,04,16,15,33,10.20
2019,04,16,15,34,10.20
2019,04,16,15,36,10.20
2019,04,16,15,38,10.10
2019,04,16,15,39,10.10
2019,04,16,15,40,10.00
2019,04,16,15,41,9.90
2019,04,16,15,42,9.90
2019,04,16,15,43,9.90
2019,04,16,15,44,9.90
2019,04,16,15,45,9.80
2019,04,16,15,46,9.80
2019,04,16,15,47,9.80
2019,04,16,15,49,9.80
2019,04,16,15,50,9.80
2019,04,16,15,51,9.80
2019,04,16,15,52,9.80
2019,04,16,15,53,9.80
2019,04,16,15,54,9.80
2019,04,16,15,55,9.80
2019,04,16,15,56,9.80
2019,04,16,15,57,9.80
2019,04,16,15,58,9.80
2019,04,16,15,59,9.80
2019,04,16,16,00,9.80
2019,04,16,16,01,9.80
2019,04,16,16,03,9.80
2019,04,16,16,04,9.80
2019,04,16,16,05,9.80
2019,04,16,16,06,9.80
2019,04,16,16,07,9.80
2019,04,16,16,08,9.80
2019,04,16,16,09,9.80
2019,04,16,16,10,9.80
2019,04,16,16,11,9.80
2019,04,16,16,12,9.80
2019,04,16,16,13,9.80
2019,04,16,16,14,9.80
2019,04,16,16,15,9.80
2019,04,16,16,16,9.80
2019,04,16,16,17,9.80
2019,04,16,16,18,9.80
2019,04,16,16,19,9.80
2019,04,16,16,20,9.80
2019,04,16,16,22,9.90
2019,04,16,16,23,9.90
2019,04,16,16,24,9.90
2019,04,16,16,25,9.90
2019,04,16,16,26,9.90
2019,04,16,16,27,9.90
2019,04,16,16,29,9.90
2019,04,16,16,30,9.90
2019,04,16,16,31,9.90
2019,04,16,16,32,10.00
2019,04,16,16,33,10.00
2019,04,16,16,34,10.00
2019,04,16,16,35,10.00
2019,04,16,16,36,10.00
2019,04,16,16,37,10.00
2019,04,16,16,38,10.00
2019,04,16,16,39,10.00
2019,04,16,16,40,9.90
2019,04,16,16,41,9.90
2019,04,16,16,43,9.90
2019,04,16,16,44,9.90
2019,04,16,16,45,9.80
2019,04,16,16,46,9.80
2019,04,16,16,47,9.80
2019,04,16,16,48,9.80
2019,04,16,16,49,9.80
2019,04,16,16,50,9.80
2019,04,16,16,51,9.90
2019,04,16,16,52,9.90
2019,04,16,16,53,9.90
2019,04,16,16,54,9.90
2019,04,16,16,55,9.90
2019,04,16,16,56,9.90
2019,04,16,16,57,9.90
2019,04,16,16,58,9.90
2019,04,16,17,00,9.90
2019,04,16,17,01,9.90
2019,04,16,17,02,9.90
2019,04,16,17,03,9.90
2019,04,16,17,05,9.90
2019,04,16,17,06,9.90
2019,04,16,17,07,9.80
2019,04,16,17,08,9.80
2019,04,16,17,10,9.80
2019,04,16,17,11,9.80
2019,04,16,17,12,9.80
2019,04,16,17,13,9.80
2019,04,16,17,14,9.80
2019,04,16,17,15,9.80
2019,04,16,17,16,9.80
2019,04,16,17,17,9.80
2019,04,16,17,19,9.80
2019,04,16,17,20,9.80
2019,04,16,17,21,9.80
2019,04,16,17,22,9.80
2019,04,16,17,23,9.80
2019,04,16,17,25,9.80
2019,04,16,17,26,9.80
2019,04,16,17,28,9.70
2019,04,16,17,29,9.70
2019,04,16,17,30,9.70
2019,04,16,17,31,9.70
2019,04,16,17,32,9.70
2019,04,16,17,33,9.70
2019,04,16,17,34,9.70
2019,04,16,17,35,9.70
2019,04,16,17,37,9.70
2019,04,16,17,38,9.70
2019,04,16,17,39,9.70
2019,04,16,17,40,9.70
2019,04,16,17,41,9.70
2019,04,16,17,42,9.60
2019,04,16,17,44,9.60
2019,04,16,17,45,9.60
2019,04,16,17,46,9.60
2019,04,16,17,48,9.60
2019,04,16,17,49,9.60
2019,04,16,17,51,9.60
2019,04,16,17,52,9.50
2019,04,16,17,53,9.50
2019,04,16,17,54,9.50
2019,04,16,17,55,9.50
2019,04,16,17,57,9.50
2019,04,16,17,58,9.50
2019,04,16,17,59,9.50
2019,04,16,18,00,9.50
2019,04,16,18,01,9.50
2019,04,16,18,02,9.50
2019,04,16,18,03,9.50
2019,04,16,18,05,9.50
2019,04,16,18,06,9.40
2019,04,16,18,07,9.40
2019,04,16,18,08,9.40
2019,04,16,18,09,9.40
2019,04,16,18,10,9.40
2019,04,16,18,11,9.40
2019,04,16,18,12,9.40
2019,04,16,18,13,9.40
2019,04,16,18,14,9.40
2019,04,16,18,15,9.40
2019,04,16,18,16,9.40
2019,04,16,18,17,9.40
2019,04,16,18,18,9.40
2019,04,16,18,19,9.40
2019,04,16,18,20,9.40
2019,04,16,18,21,9.40
2019,04,16,18,22,9.40
2019,04,16,18,23,9.40
2019,04,16,18,24,9.40
2019,04,16,18,25,9.40
2019,04,16,18,26,9.30
2019,04,16,18,27,9.40
2019,04,16,18,28,9.30
2019,04,16,18,29,9.30
2019,04,16,18,30,9.30
2019,04,16,18,31,9.30
2019,04,16,18,32,9.30
2019,04,16,18,33,9.30
2019,04,16,18,34,9.40
2019,04,16,18,35,9.40
2019,04,16,18,36,9.40
2019,04,16,18,37,9.40
2019,04,16,18,38,9.40
2019,04,16,18,39,9.40
2019,04,16,18,40,9.40
2019,04,16,18,41,9.40
2019,04,16,18,42,9.40
2019,04,16,18,43,9.40
2019,04,16,18,44,9.40
2019,04,16,18,45,9.50
2019,04,16,18,46,9.50
2019,04,16,18,47,9.50
2019,04,16,18,48,9.50
2019,04,16,18,49,9.50
2019,04,16,18,50,9.60
2019,04,16,18,51,9.60
2019,04,16,18,52,9.60
2019,04,16,18,53,9.60
2019,04,16,18,54,9.60
2019,04,16,18,55,9.50
2019,04,16,18,56,9.50
2019,04,16,18,57,9.50
2019,04,16,18,58,9.50
2019,04,16,18,59,9.40
2019,04,16,19,00,9.40
2019,04,16,19,01,9.40
2019,04,16,19,02,9.30
2019,04,16,19,03,9.30
2019,04,16,19,04,9.30
2019,04,16,19,05,9.30
2019,04,16,19,06,9.30
2019,04,16,19,07,9.20
2019,04,16,19,08,9.20
2019,04,16,19,09,9.20
2019,04,16,19,10,9.20
2019,04,16,19,11,9.20
2019,04,16,19,12,9.20
2019,04,16,19,13,9.20
2019,04,16,19,14,9.20
2019,04,16,19,15,9.20
2019,04,16,19,16,9.20
2019,04,16,19,17,9.20
2019,04,16,19,18,9.20
2019,04,16,19,19,9.20
2019,04,16,19,20,9.20
2019,04,16,19,21,9.20
2019,04,16,19,22,9.20
2019,04,16,19,23,9.20
2019,04,16,19,24,9.20
2019,04,16,19,25,9.20
2019,04,16,19,26,9.20
2019,04,16,19,27,9.20
2019,04,16,19,28,9.20
2019,04,16,19,29,9.20
2019,04,16,19,30,9.20
2019,04,16,19,31,9.20
2019,04,16,19,32,9.20
2019,04,16,19,33,9.20
2019,04,16,19,34,9.10
2019,04,16,19,35,9.10
2019,04,16,19,36,9.10
2019,04,16,19,37,9.10
2019,04,16,19,38,9.10
2019,04,16,19,39,9.10
2019,04,16,19,40,9.10
2019,04,16,19,41,9.10
2019,04,16,19,42,9.10
2019,04,16,19,43,9.10
2019,04,16,19,44,9.10
2019,04,16,19,45,9.10
2019,04,16,19,46,9.10
2019,04,16,19,47,9.10
2019,04,16,19,48,9.10
2019,04,16,19,49,9.10
2019,04,16,19,50,9.10
2019,04,16,19,51,9.10
2019,04,16,19,52,9.10
2019,04,16,19,53,9.10
2019,04,16,19,54,9.10
2019,04,16,19,55,9.10
2019,04,16,19,56,9.10
2019,04,16,19,57,9.10
2019,04,16,19,58,9.10
2019,04,16,19,59,9.10
2019,04,16,20,00,9.00
2019,04,16,20,01,9.00
2019,04,16,20,02,9.00
2019,04,16,20,03,9.10
2019,04,16,20,04,9.00
2019,04,16,20,05,9.10
2019,04,16,20,06,9.10
2019,04,16,20,07,9.10
2019,04,16,20,08,9.10
2019,04,16,20,09,9.10
2019,04,16,20,10,9.10
2019,04,16,20,11,9.10
2019,04,16,20,12,9.10
2019,04,16,20,13,9.10
2019,04,16,20,14,9.10
2019,04,16,20,15,9.10
2019,04,16,20,16,9.10
2019,04,16,20,17,9.10
2019,04,16,20,18,9.10
2019,04,16,20,19,9.10